sat.trackr.live / text

‹ back to catalog

STARLINK-35217

NORAD 65627 · 2025-210F

PAYLOAD ACTIVE UNKNOWN

§ Identity

Operator
Country
US
Launch date
2025-09-18
Launch site
AFETR
Launch vehicle
Mass (kg)
RCS (m²)

Purposes: comms

External: N2YO · Heavens-Above · Gunter

§ Orbital elements

Epoch: 2026-09-20T01:56:36.674592Z

Period
93.85 min
Inclination
53.1596°
Eccentricity
0.0001523
Mean motion
15.34407332 rev/d
Perigee alt
461.6 km
Apogee alt
463.7 km
Semi-major
6,840.8 km
B*
4.1445e-4
RAAN
123.4154°
Arg perigee
121.2874°
Mean anomaly
238.8278°
Rev number
5,750

§ Raw data

STARLINK-352171 65627U 25210F   26263.08098003  .00013655  00000+0  41445-3 0  99932 65627  53.1596 123.4154 0001523 121.2874 238.8278 15.34407332 57500

JSON: /api/v1/satellites/65627 · /tle

For live sub-satellite position, see the globe view (requires WebGL).

§ Visibility from observer

Set your observer location to see the next 7 days of passes ≥ 10°. The values pass through the URL so the page stays shareable.

No JS? Fill the form by hand. The geolocation button needs JavaScript.